Time,TemperatureF,DewpointF,PressureIn,WindDirection,WindDirectionDegrees,WindSpeedMPH,WindSpeedGustMPH,Humidity,HourlyPrecipIn,Conditions,Clouds,dailyrainin,SoftwareType,DateUTC
2013-01-16 00:03:00,32.0,26.0,30.19,ENE,61,2.0,6.0,78,0.00,,,0.00,,2013-01-16 05:03:00,
2013-01-16 00:12:00,32.0,26.0,30.19,ENE,61,2.0,6.0,78,0.00,,,0.00,,2013-01-16 05:12:00,
2013-01-16 00:22:00,32.0,25.0,30.19,NE,46,1.0,5.0,76,0.00,,,0.00,,2013-01-16 05:22:00,
2013-01-16 00:32:00,32.0,25.0,30.20,NE,45,0.0,3.0,74,0.00,,,0.00,,2013-01-16 05:32:00,
2013-01-16 00:42:00,32.0,25.0,30.20,NE,45,0.0,3.0,74,0.00,,,0.00,,2013-01-16 05:42:00,
2013-01-16 00:53:00,32.0,24.0,30.21,NE,45,0.0,1.0,73,0.00,,,0.00,,2013-01-16 05:53:00,
2013-01-16 01:03:00,32.0,25.0,30.21,NE,45,0.0,1.0,74,0.00,,,0.00,,2013-01-16 06:03:00,
2013-01-16 01:12:00,32.0,25.0,30.21,NE,45,0.0,1.0,74,0.00,,,0.00,,2013-01-16 06:12:00,
2013-01-16 01:22:00,32.0,25.0,30.18,ENE,62,2.0,5.0,76,0.00,,,0.00,,2013-01-16 06:22:00,
2013-01-16 01:32:00,32.0,25.0,30.19,NE,56,1.0,7.0,74,0.00,,,0.00,,2013-01-16 06:32:00,
2013-01-16 01:43:00,32.0,25.0,30.19,NE,56,1.0,7.0,74,0.00,,,0.00,,2013-01-16 06:43:00,
2013-01-16 01:53:00,32.0,24.0,30.19,ENE,57,0.0,5.0,72,0.00,,,0.00,,2013-01-16 06:53:00,
2013-01-16 02:02:00,32.0,24.0,30.19,ENE,69,1.0,4.0,72,0.00,,,0.00,,2013-01-16 07:02:00,
2013-01-16 02:12:00,32.0,24.0,30.19,ENE,69,1.0,4.0,72,0.00,,,0.00,,2013-01-16 07:12:00,
2013-01-16 02:22:00,32.0,23.0,30.19,ENE,71,0.0,6.0,70,0.00,,,0.00,,2013-01-16 07:22:00,
2013-01-16 02:33:00,32.0,23.0,30.19,ENE,63,1.0,3.0,69,0.00,,,0.00,,2013-01-16 07:33:00,
2013-01-16 02:42:00,32.0,23.0,30.19,ENE,63,1.0,3.0,69,0.00,,,0.00,,2013-01-16 07:42:00,
2013-01-16 02:52:00,32.0,24.0,30.19,ENE,73,0.0,3.0,71,0.00,,,0.00,,2013-01-16 07:52:00,
2013-01-16 03:02:00,32.0,23.0,30.17,ENE,70,1.0,5.0,70,0.00,,,0.00,,2013-01-16 08:02:00,
2013-01-16 03:12:00,32.0,23.0,30.17,ENE,70,1.0,5.0,70,0.00,,,0.00,,2013-01-16 08:12:00,
2013-01-16 03:22:00,32.0,23.0,30.17,ENE,64,2.0,3.0,69,0.00,,,0.00,,2013-01-16 08:22:00,
2013-01-16 03:32:00,32.0,23.0,30.16,East,87,0.0,4.0,70,0.00,,,0.00,,2013-01-16 08:32:00,
2013-01-16 03:42:00,32.0,23.0,30.16,East,87,0.0,4.0,70,0.00,,,0.00,,2013-01-16 08:42:00,
2013-01-16 03:53:00,31.0,25.0,30.14,East,81,2.0,12.0,77,0.00,,,0.00,,2013-01-16 08:53:00,
2013-01-16 04:02:00,30.0,25.0,30.13,ENE,78,0.0,8.0,80,0.00,,,0.00,,2013-01-16 09:02:00,
2013-01-16 04:12:00,30.0,25.0,30.13,ENE,78,0.0,8.0,80,0.00,,,0.00,,2013-01-16 09:12:00,
2013-01-16 04:22:00,29.0,25.0,30.12,NE,46,1.0,3.0,85,0.01,,,0.01,,2013-01-16 09:22:00,
2013-01-16 04:32:00,29.0,25.0,30.13,NE,43,1.0,-999.0,86,-99.99,,,-99.99,,2013-01-16 09:32:00,
2013-01-16 04:42:00,29.0,25.0,30.13,NE,43,1.0,-999.0,86,-99.99,,,-99.99,,2013-01-16 09:42:00,
2013-01-16 04:53:00,29.0,26.0,30.13,North,10,0.0,-999.0,88,-99.99,,,-99.99,,2013-01-16 09:53:00,
2013-01-16 05:02:00,29.0,26.0,30.12,NNE,23,1.0,-999.0,88,-99.99,,,-99.99,,2013-01-16 10:02:00,
2013-01-16 05:12:00,29.0,26.0,30.12,NNE,23,1.0,-999.0,88,-99.99,,,-99.99,,2013-01-16 10:12:00,
2013-01-16 05:22:00,29.0,26.0,30.11,ENE,61,0.0,-999.0,89,-99.99,,,-99.99,,2013-01-16 10:22:00,
2013-01-16 05:32:00,29.0,26.0,30.09,ENE,72,0.0,-999.0,90,-99.99,,,-99.99,,2013-01-16 10:32:00,
2013-01-16 05:42:00,29.0,26.0,30.09,ENE,72,0.0,-999.0,90,-99.99,,,-99.99,,2013-01-16 10:42:00,
2013-01-16 05:53:00,29.0,26.0,30.09,East,89,2.0,-999.0,90,-99.99,,,-99.99,,2013-01-16 10:53:00,
2013-01-16 06:02:00,29.0,26.0,30.08,East,93,4.0,-999.0,90,-99.99,,,-99.99,,2013-01-16 11:02:00,
2013-01-16 06:12:00,29.0,26.0,30.08,East,93,4.0,-999.0,90,-99.99,,,-99.99,,2013-01-16 11:12:00,
2013-01-16 06:23:00,29.0,26.0,30.08,East,91,1.0,-999.0,90,-99.99,,,-99.99,,2013-01-16 11:23:00,
2013-01-16 06:33:00,29.0,27.0,30.07,NE,50,1.0,-999.0,91,-99.99,,,-99.99,,2013-01-16 11:33:00,
2013-01-16 06:42:00,29.0,27.0,30.07,NE,50,1.0,-999.0,91,-99.99,,,-99.99,,2013-01-16 11:42:00,
2013-01-16 06:53:00,29.0,27.0,30.07,NE,45,0.0,-999.0,91,-99.99,,,-99.99,,2013-01-16 11:53:00,
2013-01-16 07:03:00,29.0,27.0,30.07,NE,44,1.0,-999.0,91,-99.99,,,-99.99,,2013-01-16 12:03:00,
2013-01-16 07:13:00,29.0,27.0,30.07,NE,44,1.0,-999.0,91,-99.99,,,-99.99,,2013-01-16 12:13:00,
2013-01-16 07:22:00,29.0,27.0,30.07,NE,35,5.0,-999.0,92,-99.99,,,-99.99,,2013-01-16 12:22:00,
2013-01-16 07:33:00,29.0,27.0,30.06,NE,46,3.0,-999.0,92,-99.99,,,-99.99,,2013-01-16 12:33:00,
2013-01-16 07:43:00,29.0,27.0,30.06,NE,46,3.0,-999.0,92,-99.99,,,-99.99,,2013-01-16 12:43:00,
2013-01-16 07:53:00,29.0,27.0,30.05,NNE,18,1.0,-999.0,92,-99.99,,,-99.99,,2013-01-16 12:53:00,
2013-01-16 08:03:00,29.0,27.0,30.05,NE,38,0.0,-999.0,92,-99.99,,,-99.99,,2013-01-16 13:03:00,
2013-01-16 08:12:00,29.0,27.0,30.05,NE,38,0.0,-999.0,92,-99.99,,,-99.99,,2013-01-16 13:12:00,
2013-01-16 08:23:00,29.0,27.0,30.05,NE,45,2.0,-999.0,92,-99.99,,,-99.99,,2013-01-16 13:23:00,
2013-01-16 08:33:00,29.0,27.0,30.05,NE,39,0.0,-999.0,92,-99.99,,,-99.99,,2013-01-16 13:33:00,
2013-01-16 08:43:00,29.0,27.0,30.05,NE,39,0.0,-999.0,92,-99.99,,,-99.99,,2013-01-16 13:43:00,
2013-01-16 08:53:00,29.0,27.0,30.06,NE,49,0.0,-999.0,92,-99.99,,,-99.99,,2013-01-16 13:53:00,
2013-01-16 09:03:00,29.0,27.0,30.04,ENE,57,0.0,-999.0,92,-99.99,,,-99.99,,2013-01-16 14:03:00,
2013-01-16 09:12:00,29.0,27.0,30.04,ENE,57,0.0,-999.0,92,-99.99,,,-99.99,,2013-01-16 14:12:00,
2013-01-16 09:23:00,29.0,27.0,30.03,ENE,72,1.0,-999.0,92,-99.99,,,-99.99,,2013-01-16 14:23:00,
2013-01-16 09:33:00,29.0,27.0,30.01,NE,54,4.0,-999.0,92,-99.99,,,-99.99,,2013-01-16 14:33:00,
2013-01-16 09:43:00,29.0,27.0,30.01,NE,54,4.0,-999.0,92,-99.99,,,-99.99,,2013-01-16 14:43:00,
2013-01-16 09:53:00,29.0,27.0,29.98,ENE,62,0.0,-999.0,91,-99.99,,,-99.99,,2013-01-16 14:53:00,
2013-01-16 10:03:00,30.0,28.0,29.98,NE,53,0.0,-999.0,92,-99.99,,,-99.99,,2013-01-16 15:03:00,
2013-01-16 10:12:00,30.0,28.0,29.98,NE,53,0.0,-999.0,92,-99.99,,,-99.99,,2013-01-16 15:12:00,
2013-01-16 10:23:00,30.0,28.0,29.96,ENE,71,0.0,-999.0,92,-99.99,,,-99.99,,2013-01-16 15:23:00,
2013-01-16 10:33:00,30.0,28.0,29.94,NE,51,0.0,-999.0,92,-99.99,,,-99.99,,2013-01-16 15:33:00,
2013-01-16 10:43:00,30.0,28.0,29.94,NE,51,0.0,-999.0,92,-99.99,,,-99.99,,2013-01-16 15:43:00,
2013-01-16 10:53:00,31.0,29.0,29.93,ENE,72,0.0,-999.0,92,-99.99,,,-99.99,,2013-01-16 15:53:00,
2013-01-16 11:03:00,31.0,29.0,29.91,NE,51,4.0,-999.0,92,-99.99,,,-99.99,,2013-01-16 16:03:00,
2013-01-16 11:12:00,31.0,29.0,29.91,NE,51,4.0,-999.0,92,-99.99,,,-99.99,,2013-01-16 16:12:00,
2013-01-16 11:23:00,31.0,29.0,29.92,NNE,27,6.0,-999.0,93,-99.99,,,-99.99,,2013-01-16 16:23:00,
2013-01-16 11:33:00,31.0,29.0,29.92,NNE,20,0.0,-999.0,93,-99.99,,,-99.99,,2013-01-16 16:33:00,
2013-01-16 11:43:00,31.0,29.0,29.92,NNE,20,0.0,-999.0,93,-99.99,,,-99.99,,2013-01-16 16:43:00,
2013-01-16 11:53:00,31.0,29.0,29.91,NE,35,1.0,-999.0,93,-99.99,,,-99.99,,2013-01-16 16:53:00,
2013-01-16 12:03:00,31.0,29.0,29.90,NNE,28,1.0,-999.0,93,-99.99,,,-99.99,,2013-01-16 17:03:00,
2013-01-16 12:12:00,31.0,29.0,29.90,NNE,28,1.0,-999.0,93,-99.99,,,-99.99,,2013-01-16 17:12:00,
2013-01-16 12:23:00,32.0,30.0,29.91,NNW,347,0.0,-999.0,93,-99.99,,,-99.99,,2013-01-16 17:23:00,
2013-01-16 12:33:00,32.0,30.0,29.89,North,0,0.0,-999.0,93,-99.99,,,-99.99,,2013-01-16 17:33:00,
2013-01-16 12:43:00,32.0,30.0,29.89,North,0,0.0,-999.0,93,-99.99,,,-99.99,,2013-01-16 17:43:00,
2013-01-16 12:53:00,32.0,30.0,29.88,NNE,14,0.0,-999.0,93,-99.99,,,-99.99,,2013-01-16 17:53:00,
2013-01-16 13:03:00,32.0,30.0,29.88,NNE,13,0.0,-999.0,93,-99.99,,,-99.99,,2013-01-16 18:03:00,
2013-01-16 13:13:00,32.0,30.0,29.88,NNE,13,0.0,-999.0,93,-99.99,,,-99.99,,2013-01-16 18:13:00,
2013-01-16 13:23:00,31.0,29.0,29.88,North,0,0.0,3.0,93,0.00,,,0.00,,2013-01-16 18:23:00,
2013-01-16 13:33:00,31.0,29.0,29.86,North,0,1.0,2.0,93,0.00,,,0.00,,2013-01-16 18:33:00,
2013-01-16 13:42:00,31.0,29.0,29.86,North,0,1.0,2.0,93,0.00,,,0.00,,2013-01-16 18:42:00,
2013-01-16 13:53:00,31.0,29.0,29.84,North,0,1.0,4.0,93,0.00,,,0.00,,2013-01-16 18:53:00,
2013-01-16 14:03:00,32.0,30.0,29.81,North,0,1.0,3.0,93,0.00,,,0.00,,2013-01-16 19:03:00,
2013-01-16 14:12:00,32.0,30.0,29.81,North,0,1.0,3.0,93,0.00,,,0.00,,2013-01-16 19:12:00,
2013-01-16 14:23:00,31.0,29.0,29.78,NE,54,1.0,4.0,93,0.00,,,0.00,,2013-01-16 19:23:00,
2013-01-16 14:33:00,31.0,29.0,29.81,North,0,1.0,4.0,93,0.00,,,0.00,,2013-01-16 19:33:00,
2013-01-16 14:43:00,31.0,29.0,29.81,North,0,1.0,4.0,93,0.00,,,0.00,,2013-01-16 19:43:00,
2013-01-16 14:53:00,31.0,29.0,29.78,NE,35,0.0,4.0,94,0.00,,,0.00,,2013-01-16 19:53:00,
2013-01-16 15:03:00,32.0,30.0,29.82,NNW,342,0.0,3.0,94,0.00,,,0.00,,2013-01-16 20:03:00,
2013-01-16 15:12:00,32.0,30.0,29.82,NNW,342,0.0,3.0,94,0.00,,,0.00,,2013-01-16 20:12:00,
2013-01-16 15:23:00,31.0,29.0,29.80,NNW,344,0.0,0.0,94,0.00,,,0.00,,2013-01-16 20:23:00,
2013-01-16 15:33:00,31.0,29.0,29.82,NNW,347,0.0,0.0,94,0.00,,,0.00,,2013-01-16 20:33:00,
2013-01-16 15:43:00,31.0,29.0,29.82,NNW,347,0.0,0.0,94,0.00,,,0.00,,2013-01-16 20:43:00,
2013-01-16 15:53:00,31.0,29.0,29.82,NNW,343,2.0,5.0,94,0.00,,,0.00,,2013-01-16 20:53:00,
2013-01-16 16:03:00,31.0,29.0,29.81,NNW,343,3.0,7.0,94,0.00,,,0.00,,2013-01-16 21:03:00,
2013-01-16 16:12:00,31.0,29.0,29.81,NNW,343,3.0,7.0,94,0.00,,,0.00,,2013-01-16 21:12:00,
2013-01-16 16:23:00,31.0,30.0,29.83,NNW,335,0.0,5.0,95,0.00,,,0.00,,2013-01-16 21:23:00,
2013-01-16 16:33:00,31.0,29.0,29.83,NNW,339,0.0,2.0,94,0.00,,,0.00,,2013-01-16 21:33:00,
2013-01-16 16:43:00,31.0,29.0,29.83,NNW,339,0.0,2.0,94,0.00,,,0.00,,2013-01-16 21:43:00,
2013-01-16 16:53:00,31.0,29.0,29.83,NNW,340,0.0,1.0,94,0.00,,,0.00,,2013-01-16 21:53:00,
2013-01-16 17:03:00,31.0,29.0,29.82,NNW,341,0.0,2.0,94,0.00,,,0.00,,2013-01-16 22:03:00,
2013-01-16 17:12:00,31.0,29.0,29.82,NNW,341,0.0,2.0,94,0.00,,,0.00,,2013-01-16 22:12:00,
2013-01-16 17:23:00,31.0,30.0,29.83,NNW,341,0.0,1.0,95,0.00,,,0.00,,2013-01-16 22:23:00,
2013-01-16 17:33:00,31.0,30.0,29.82,NNW,341,0.0,1.0,95,0.00,,,0.00,,2013-01-16 22:33:00,
2013-01-16 17:43:00,31.0,30.0,29.82,NNW,341,0.0,1.0,95,0.00,,,0.00,,2013-01-16 22:43:00,
2013-01-16 17:53:00,32.0,31.0,29.83,NNW,341,0.0,0.0,95,0.01,,,0.01,,2013-01-16 22:53:00,
2013-01-16 18:03:00,32.0,31.0,29.83,NNW,341,0.0,0.0,95,0.01,,,0.01,,2013-01-16 23:03:00,
2013-01-16 18:12:00,32.0,31.0,29.83,NNW,341,0.0,0.0,95,0.01,,,0.01,,2013-01-16 23:12:00,
2013-01-16 18:23:00,32.0,31.0,29.83,NNW,341,0.0,0.0,95,0.01,,,0.01,,2013-01-16 23:23:00,
2013-01-16 18:32:00,32.0,31.0,29.84,NNW,341,0.0,1.0,95,0.01,,,0.01,,2013-01-16 23:32:00,
2013-01-16 18:42:00,32.0,31.0,29.84,NNW,341,0.0,1.0,95,0.01,,,0.01,,2013-01-16 23:42:00,
2013-01-16 18:53:00,32.0,30.0,29.82,NNW,341,0.0,0.0,94,0.00,,,0.01,,2013-01-16 23:53:00,
2013-01-16 19:02:00,32.0,31.0,29.83,NNW,341,0.0,0.0,95,0.00,,,0.01,,2013-01-17 00:02:00,
2013-01-16 19:12:00,32.0,31.0,29.83,NNW,341,0.0,0.0,95,0.00,,,0.01,,2013-01-17 00:12:00,
2013-01-16 19:22:00,32.0,31.0,29.83,NNW,340,0.0,1.0,95,0.00,,,0.01,,2013-01-17 00:22:00,
2013-01-16 19:32:00,32.0,31.0,29.81,NNW,339,0.0,1.0,95,0.00,,,0.01,,2013-01-17 00:32:00,
2013-01-16 19:42:00,32.0,31.0,29.81,NNW,339,0.0,1.0,95,0.00,,,0.01,,2013-01-17 00:42:00,
2013-01-16 19:53:00,31.0,30.0,29.80,NW,308,0.0,1.0,95,0.00,,,0.01,,2013-01-17 00:53:00,
2013-01-16 20:02:00,31.0,30.0,29.81,NW,305,0.0,1.0,95,0.00,,,0.01,,2013-01-17 01:02:00,
2013-01-16 20:12:00,31.0,30.0,29.81,NW,305,0.0,1.0,95,0.00,,,0.01,,2013-01-17 01:12:00,
2013-01-16 20:22:00,31.0,30.0,29.82,West,261,0.0,3.0,95,0.00,,,0.01,,2013-01-17 01:22:00,
2013-01-16 20:33:00,31.0,30.0,29.82,WSW,250,1.0,3.0,95,0.00,,,0.01,,2013-01-17 01:33:00,
2013-01-16 20:42:00,31.0,30.0,29.82,WSW,250,1.0,3.0,95,0.00,,,0.01,,2013-01-17 01:42:00,
2013-01-16 20:52:00,32.0,31.0,29.82,WSW,244,1.0,4.0,95,0.00,,,0.01,,2013-01-17 01:52:00,
2013-01-16 21:02:00,32.0,31.0,29.83,WSW,242,1.0,4.0,95,0.00,,,0.01,,2013-01-17 02:02:00,
2013-01-16 21:12:00,32.0,31.0,29.83,WSW,242,1.0,4.0,95,0.00,,,0.01,,2013-01-17 02:12:00,
2013-01-16 21:22:00,32.0,31.0,29.82,WSW,240,2.0,4.0,95,0.00,,,0.01,,2013-01-17 02:22:00,
2013-01-16 21:32:00,32.0,31.0,29.81,WSW,239,2.0,4.0,95,0.00,,,0.01,,2013-01-17 02:32:00,
2013-01-16 21:42:00,32.0,31.0,29.81,WSW,239,2.0,4.0,95,0.00,,,0.01,,2013-01-17 02:42:00,
2013-01-16 21:52:00,32.0,31.0,29.81,WSW,239,2.0,4.0,95,0.00,,,0.01,,2013-01-17 02:52:00,
2013-01-16 22:03:00,32.0,31.0,29.83,WSW,238,3.0,6.0,95,0.00,,,0.01,,2013-01-17 03:03:00,
2013-01-16 22:12:00,32.0,31.0,29.83,WSW,238,3.0,6.0,95,0.00,,,0.01,,2013-01-17 03:12:00,
2013-01-16 22:22:00,32.0,31.0,29.83,WSW,239,0.0,4.0,95,0.00,,,0.01,,2013-01-17 03:22:00,
2013-01-16 22:32:00,32.0,31.0,29.83,WSW,244,0.0,0.0,95,0.00,,,0.01,,2013-01-17 03:32:00,
2013-01-16 22:43:00,32.0,31.0,29.83,WSW,244,0.0,0.0,95,0.00,,,0.01,,2013-01-17 03:43:00,
2013-01-16 22:53:00,32.0,31.0,29.82,WSW,252,0.0,1.0,95,0.00,,,0.01,,2013-01-17 03:53:00,
2013-01-16 23:02:00,32.0,31.0,29.82,West,267,2.0,8.0,95,0.00,,,0.01,,2013-01-17 04:02:00,
2013-01-16 23:12:00,32.0,31.0,29.81,West,269,0.0,0.0,96,0.00,,,0.01,,2013-01-17 04:12:00,
2013-01-16 23:22:00,32.0,31.0,29.81,West,269,0.0,0.0,96,0.00,,,0.01,,2013-01-17 04:22:00,
2013-01-16 23:33:00,32.0,31.0,29.83,West,267,0.0,1.0,95,0.00,,,0.01,,2013-01-17 04:33:00,
2013-01-16 23:42:00,32.0,31.0,29.83,West,267,0.0,1.0,95,0.00,,,0.01,,2013-01-17 04:42:00,
2013-01-16 23:52:00,32.0,31.0,29.83,West,270,0.0,1.0,95,0.00,,,0.01,,2013-01-17 04:52:00,